This is the latest recevied weather packets stored in our database for station/object WA6OOO. If no packets are shown the sender has not sent any weather packets the latest 10 day(s).
| Time | Temp. | Humidity | Pressure | Rain* | Wind** | Luminosity | Snow |
|---|---|---|---|---|---|---|---|
| 1777819223 | 13.89° C | 78% | 1016.7 hPa | 0 mm | - | 33 W/m² | - |
| 1777818920 | 13.89° C | 80% | 1016.7 hPa | 0 mm | - | 26 W/m² | - |
| 1777818616 | 13.89° C | 80% | 1016.6 hPa | 0 mm | - | 24 W/m² | - |
| 1777818313 | 13.89° C | 81% | 1016.6 hPa | 0 mm | - | 22 W/m² | - |
| 1777818009 | 13.89° C | 82% | 1016.6 hPa | 0 mm | - | 21 W/m² | - |
| 1777817707 | 13.89° C | 83% | 1016.5 hPa | 0 mm | - | 20 W/m² | - |
| 1777817404 | 13.89° C | 84% | 1016.3 hPa | 0 mm | - | 18 W/m² | - |
| 1777817100 | 13.89° C | 86% | 1016.3 hPa | 0 mm | - | 18 W/m² | - |
| 1777816796 | 13.89° C | 87% | 1016.4 hPa | 0 mm | - | 17 W/m² | - |
| 1777816495 | 13.89° C | 88% | 1016.3 hPa | 0 mm | - | 18 W/m² | - |
| 1777816191 | 13.89° C | 89% | 1016 hPa | 0 mm | - | 12 W/m² | - |
| 1777815889 | 13.89° C | 89% | 1016.2 hPa | 0 mm | - | 11 W/m² | - |
| 1777815586 | 13.89° C | 88% | 1015.9 hPa | 0 mm | - | 10 W/m² | - |
| 1777815284 | 13.89° C | 88% | 1016 hPa | 0 mm | - | 8 W/m² | - |
| 1777814979 | 13.89° C | 88% | 1016 hPa | 0 mm | - | 6 W/m² | - |
| 1777814676 | 13.89° C | 89% | 1015.8 hPa | 0 mm | - | 4 W/m² | - |
| 1777814373 | 13.89° C | 89% | 1015.8 hPa | 0 mm | - | 3 W/m² | - |
| 1777814070 | 13.89° C | 88% | 1015.7 hPa | 0 mm | - | 3 W/m² | - |
| 1777813767 | 13.89° C | 88% | 1015.9 hPa | 0 mm | - | 2 W/m² | - |
| 1777813465 | 13.89° C | 89% | 1015.6 hPa | 0 mm | - | 1 W/m² | - |
| 1777813162 | 13.89° C | 89% | 1015.6 hPa | 0 mm | - | 0 W/m² | - |
| 1777812860 | 13.89° C | 89% | 1015.6 hPa | 0 mm | - | 0 W/m² | - |
| 1777812555 | 13.89° C | 89% | 1015.6 hPa | 0 mm | - | 0 W/m² | - |
| 1777812254 | 13.89° C | 89% | 1015.7 hPa | 0 mm | - | 0 W/m² | - |
| 1777811952 | 13.89° C | 89% | 1015.7 hPa | 0 mm | - | 0 W/m² | - |
* Rain latest hour (hover to see other rain measurements)
** Current wind speed in m/s (hover to see current wind gust speed)